DateTimeUTC,F1_A11,F1_S11,BsB_S11,BsG_S11,BsR_S11,BbsB_S11,BbsG_S11,BbsR_S11,BaB_A11,BaG_A11,BaR_A11,Tu_S11,T_S11,Uu_S11,U_S11,P_S11,T1_A11
2021-06-01T01:00:00Z,00000200,20000000,,,,,,,0000.17,-000.11,-000.45,16.8,24.0,01.8,01.2,0660.6,30.9
2021-06-01T01:01:00Z,00000200,20000000,,,,,,,-000.18,0000.09,0000.25,16.8,24.0,01.7,01.1,0660.6,30.9
2021-06-01T01:02:00Z,00000200,20000000,,,,,,,-000.22,-000.15,0000.04,16.8,24.0,01.7,01.1,0660.6,30.9
2021-06-01T01:03:00Z,00000200,60000000,,,,,,,0000.40,0000.29,0000.12,16.8,24.0,01.7,01.1,0660.6,30.9
2021-06-01T01:04:00Z,00000200,41000000,0000.39,0000.43,0000.23,0000.59,-000.19,0000.16,0000.12,0000.03,0000.05,17.1,23.8,01.9,01.2,0661.6,30.9
2021-06-01T01:05:00Z,00000200,00000000,0000.77,0000.13,0000.34,0000.49,-000.16,0000.34,0000.50,0000.51,0000.29,17.2,23.8,02.1,01.4,0661.7,30.9
2021-06-01T01:06:00Z,00000200,00000000,0000.29,0000.35,0000.13,0000.67,0000.09,-000.33,-000.22,-000.44,-000.04,17.2,23.8,02.1,01.4,0661.7,30.9
2021-06-01T01:07:00Z,00000200,00000000,-000.04,0000.38,0000.08,0000.29,0000.05,-000.06,0000.14,0000.02,0000.04,17.2,23.8,01.9,01.3,0661.7,30.9
2021-06-01T01:08:00Z,00000200,00000000,0000.66,0000.46,0000.30,0000.24,0000.29,-000.02,-000.29,0000.13,-000.30,17.2,23.8,01.8,01.2,0661.7,30.9
2021-06-01T01:09:00Z,00000200,00000000,0000.69,0000.18,-000.13,0000.06,-000.06,-000.17,0000.33,0000.19,0000.40,17.2,23.8,02.0,01.3,0661.7,30.9
2021-06-01T01:10:00Z,00000200,00000000,0000.68,0000.22,0000.37,0000.12,-000.06,0000.12,0000.56,0000.55,0000.13,17.1,23.8,02.2,01.4,0661.7,30.9
2021-06-01T01:11:00Z,00000200,00000000,0000.92,0000.48,0000.34,0000.30,0000.19,0000.03,-000.15,-000.31,0000.06,17.1,23.7,02.3,01.5,0661.7,30.9
2021-06-01T01:12:00Z,00000200,00000000,0000.65,-000.14,-000.09,0000.52,-000.01,0000.19,-000.08,0000.19,-000.01,17.1,23.7,02.3,01.5,0661.7,30.9
2021-06-01T01:13:00Z,00000200,00000000,0000.51,0000.35,0000.29,0000.54,0000.06,0000.29,-000.71,-000.66,-000.44,17.1,23.7,02.0,01.3,0661.7,30.9
2021-06-01T01:14:00Z,00000200,01000000,0000.78,0000.46,0000.37,0000.66,0000.00,0000.20,0000.44,0000.32,0000.07,17.1,23.7,01.9,01.2,0661.7,30.9
2021-06-01T01:15:00Z,00000200,01000000,0000.75,0000.33,-000.10,0000.07,0000.11,-000.05,-000.07,0000.04,0000.23,17.1,23.7,01.8,01.2,0661.6,30.9
2021-06-01T01:16:00Z,00000200,00000000,0000.95,0000.22,0000.09,0000.17,0000.16,-000.06,0000.84,0000.59,0000.51,17.0,23.7,02.0,01.4,0661.6,30.9
2021-06-01T01:17:00Z,00000200,00000000,0001.07,0000.57,-000.12,-000.24,0000.16,0000.20,0000.43,0000.56,0000.29,17.1,23.7,02.3,01.5,0661.6,30.9
2021-06-01T01:18:00Z,00000200,00000000,0000.39,-000.04,-000.15,-000.12,0000.10,0000.10,0000.20,0000.16,0000.14,17.1,23.7,02.4,01.6,0661.6,30.9
2021-06-01T01:19:00Z,00000200,00000000,0000.17,0000.66,0000.07,0000.50,-000.04,-000.02,-000.11,0000.10,-000.13,17.1,23.7,02.4,01.6,0661.6,30.9
2021-06-01T01:20:00Z,00000200,00000000,0000.43,0000.23,-000.01,0000.14,0000.09,0000.12,-000.01,-000.23,-000.06,17.2,23.7,02.4,01.6,0661.6,30.9
2021-06-01T01:21:00Z,00000200,00000000,0000.43,-000.06,-000.07,0000.18,-000.12,-000.10,-000.30,-000.03,0000.01,17.2,23.7,02.3,01.5,0661.6,30.9
2021-06-01T01:22:00Z,00000200,00000000,0000.92,0000.31,0000.35,0000.71,-000.05,0000.16,0000.09,-000.02,-000.21,17.2,23.7,02.1,01.4,0661.7,30.9
2021-06-01T01:23:00Z,00000200,00000000,0000.21,0000.30,0000.11,0000.43,0000.18,0000.15,0000.23,-000.00,0000.35,17.1,23.7,02.1,01.4,0661.7,30.9
2021-06-01T01:24:00Z,00000200,00000000,0000.75,0000.29,-000.13,0000.45,-000.25,0000.11,-000.43,-000.10,-000.09,17.1,23.7,02.0,01.4,0661.7,30.9
2021-06-01T01:25:00Z,00000200,00000000,0000.92,0000.20,0000.12,0000.51,0000.07,-000.15,0000.18,-000.13,-000.37,17.1,23.7,02.0,01.3,0661.7,30.9
2021-06-01T01:26:00Z,00000200,00000000,0000.38,0000.20,0000.18,-000.20,0000.04,-000.00,-000.07,0000.11,0000.14,17.1,23.7,02.0,01.3,0661.7,30.9
2021-06-01T01:27:00Z,00000200,00000000,0000.09,0000.30,0000.28,0000.28,-000.22,0000.18,-000.01,0000.14,-000.10,17.1,23.7,01.9,01.3,0661.7,30.9
2021-06-01T01:28:00Z,00000200,01000000,0001.24,0000.19,0000.04,0000.28,-000.02,-000.10,-000.19,-000.01,0000.25,17.1,23.6,01.9,01.3,0661.7,30.9
2021-06-01T01:29:00Z,00000200,01000000,0000.81,0000.35,0000.15,0000.10,0000.15,-000.09,0000.17,-000.18,-000.20,17.0,23.6,01.9,01.2,0661.7,30.9
2021-06-01T01:30:00Z,00000200,01000000,0001.12,0000.31,0000.44,0000.11,-000.01,0000.15,0000.15,-000.23,0000.20,17.0,23.6,01.7,01.1,0661.7,30.9
2021-06-01T01:31:00Z,00000200,01000000,0000.39,0000.48,0000.21,0000.06,-000.24,0000.15,-000.20,-000.06,-000.07,17.0,23.6,01.8,01.2,0661.7,30.9
2021-06-01T01:32:00Z,00000200,01000000,0000.23,0000.29,-000.01,-000.05,-000.07,-000.07,0000.08,0000.23,0000.07,17.0,23.6,01.6,01.1,0661.7,30.9
2021-06-01T01:33:00Z,00000200,01000000,0001.03,0000.23,0000.47,0000.67,0000.05,0000.13,0000.16,0000.34,-000.07,17.1,23.6,01.7,01.1,0661.7,30.9
2021-06-01T01:34:00Z,00000200,01000000,0000.59,0000.63,0000.23,-000.43,0000.16,-000.02,0000.18,-000.15,0000.17,17.1,23.6,01.6,01.1,0661.7,30.9
2021-06-01T01:35:00Z,00000200,01000000,0000.68,0000.45,0000.31,0000.63,-000.01,-000.09,0000.00,0000.17,0000.16,17.2,23.7,01.6,01.1,0661.7,30.9
2021-06-01T01:36:00Z,00000200,01000000,0000.61,0000.51,0000.20,0000.30,0000.14,-000.02,-000.40,-000.51,-000.29,17.2,23.7,01.5,01.0,0661.7,30.9
2021-06-01T01:37:00Z,00000200,01000000,0000.65,0000.11,0000.16,-000.01,-000.29,0000.35,0000.37,0000.48,0000.38,17.2,23.7,01.6,01.1,0661.7,30.9
2021-06-01T01:38:00Z,00000200,01000000,0000.95,0000.14,0000.20,0000.38,-000.27,0000.08,-000.29,-000.10,-000.21,17.2,23.7,01.5,01.0,0661.8,30.9
2021-06-01T01:39:00Z,00000200,01000000,0000.44,0000.65,0000.03,0000.36,0000.15,-000.03,0000.62,0000.06,-000.02,17.2,23.7,01.5,01.0,0661.8,30.9
2021-06-01T01:40:00Z,00000200,01000000,0000.67,0000.03,0000.01,0000.30,-000.13,0000.04,-000.23,-000.11,0000.14,17.1,23.7,01.6,01.1,0661.8,30.9
2021-06-01T01:41:00Z,00000200,01000000,0000.79,-000.03,0000.47,0000.43,0000.09,-000.15,0000.08,0000.15,-000.06,17.1,23.6,01.6,01.1,0661.8,30.9
2021-06-01T01:42:00Z,00000200,01000000,0001.06,0000.11,0000.41,0000.49,0000.04,0000.03,0000.04,0000.16,0000.36,17.1,23.7,01.5,01.0,0661.8,30.9
2021-06-01T01:43:00Z,00000200,01000000,0000.95,0000.41,0000.52,0000.92,-000.05,0000.12,0000.13,-000.36,-000.34,17.1,23.7,01.6,01.1,0661.8,30.9
2021-06-01T01:44:00Z,00000200,01000000,0000.96,0000.27,0000.26,0000.03,0000.12,0000.15,-000.01,0000.50,-000.43,17.1,23.6,01.5,01.0,0661.7,30.9
2021-06-01T01:45:00Z,00000200,01000000,0000.31,0000.22,0000.11,-000.31,-000.02,-000.26,-000.01,-000.04,0000.70,17.0,23.6,01.5,01.0,0661.7,30.9
2021-06-01T01:46:00Z,00000200,01000000,0000.33,0000.42,0000.26,0000.53,-000.02,0000.08,-000.08,-000.14,0000.10,17.0,23.6,01.5,01.0,0661.7,30.9
2021-06-01T01:47:00Z,00000200,01000000,0000.38,0000.37,0000.40,0000.17,0000.17,-000.06,0000.31,0000.18,0000.10,17.0,23.6,01.5,01.0,0661.7,30.9
2021-06-01T01:48:00Z,00000200,01000000,0000.66,0000.30,0000.39,0000.26,0000.12,0000.03,0000.53,0000.65,0000.58,17.1,23.6,01.5,01.0,0661.7,30.9
2021-06-01T01:49:00Z,00000200,01000000,0000.39,-000.08,-000.00,0000.19,0000.18,-000.28,0000.20,0000.11,0000.05,17.1,23.7,01.5,01.0,0661.7,30.9
2021-06-01T01:50:00Z,00000200,01000000,0000.26,0000.39,0000.18,0000.26,-000.07,-000.02,-000.18,-000.32,-000.28,17.2,23.7,01.5,01.0,0661.7,30.9
2021-06-01T01:51:00Z,00000200,01000000,0001.85,0000.44,0000.10,0000.26,0000.08,0000.19,-000.11,0000.16,-000.11,17.2,23.7,01.5,01.0,0661.7,30.9
2021-06-01T01:52:00Z,00000200,01000000,0000.59,0000.08,0000.24,0000.30,0000.09,0000.07,0000.28,0000.31,0000.17,17.2,23.7,01.5,01.0,0661.7,30.9
2021-06-01T01:53:00Z,00000200,01000000,0000.60,0000.24,0000.28,0000.30,-000.02,0000.13,0000.15,-000.05,0000.26,17.2,23.7,01.5,01.0,0661.7,30.9
2021-06-01T01:54:00Z,00000200,01000000,0000.56,0000.14,0000.29,0000.01,0000.10,0000.29,0000.05,0000.20,-000.32,17.2,23.7,01.6,01.1,0661.7,30.9
2021-06-01T01:55:00Z,00000200,01000000,0000.42,0000.16,-000.17,-000.18,0000.15,0000.06,0000.15,0000.15,0000.43,17.1,23.7,01.6,01.1,0661.7,30.9
2021-06-01T01:56:00Z,00000200,01000000,0000.88,0000.34,0000.38,0000.25,-000.03,0000.06,0000.07,-000.17,0000.00,17.1,23.7,01.5,01.0,0661.7,30.9
2021-06-01T01:57:00Z,00000200,41000000,,,,,,,0000.51,0000.29,-000.15,17.2,23.7,00.9,00.6,0661.6,30.9
2021-06-01T01:58:00Z,00000200,61000000,,,,,,,-000.35,-000.58,0000.22,16.8,23.8,01.6,01.0,0660.8,30.9
2021-06-01T01:59:00Z,00000200,20000000,,,,,,,-000.29,0000.23,-000.30,16.7,23.9,01.6,01.0,0660.8,30.9
